| time (UTC) | temp C | wind direction | speed KPH | gust KPH | rain 1hr cm | rain 24hr cm | rain mn cm | humidity % | barometer mb |
| 20260507001511 | 13 | 280 | 8.0 | 19.3 | 0.00 | 0.00 | 0.00 | 75 | 1020.2 |
| 20260507001003 | 13 | 259 | 8.0 | 19.3 | 0.00 | 0.00 | 0.00 | 75 | 1020.2 |
| 20260507000509 | 13 | 240 | 8.0 | 17.7 | 0.00 | 0.00 | 0.00 | 75 | 1020.2 |
| 20260507000022 | 13 | 271 | 8.0 | 17.7 | 0.00 | 0.00 | 0.00 | 75 | 1020.2 |
| 20260506235504 | 13 | 229 | 9.7 | 17.7 | 0.00 | 0.00 | 0.00 | 75 | 1020.3 |
| 20260506235006 | 13 | 253 | 6.4 | 19.3 | 0.00 | 0.00 | 0.00 | 75 | 1020.3 |
| 20260506234509 | 13 | 274 | 11.3 | 19.3 | 0.00 | 0.00 | 0.00 | 74 | 1020.2 |
| 20260506234005 | 13 | 246 | 11.3 | 19.3 | 0.00 | 0.00 | 0.00 | 73 | 1020.3 |
| 20260506233505 | 13 | 240 | 6.4 | 17.7 | 0.00 | 0.00 | 0.00 | 74 | 1020.3 |
| 20260506233016 | 14 | 234 | 9.7 | 17.7 | 0.00 | 0.00 | 0.00 | 74 | 1020.3 |
| 20260506232502 | 14 | 273 | 4.8 | 16.1 | 0.00 | 0.00 | 0.00 | 74 | 1020.2 |
| 20260506232002 | 14 | 232 | 9.7 | 16.1 | 0.00 | 0.00 | 0.00 | 74 | 1020.2 |
| 20260506231514 | 14 | 263 | 4.8 | 14.5 | 0.00 | 0.00 | 0.00 | 74 | 1020.3 |
| 20260506231003 | 14 | 228 | 4.8 | 14.5 | 0.00 | 0.00 | 0.00 | 75 | 1020.3 |
| 20260506230504 | 14 | 233 | 6.4 | 14.5 | 0.00 | 0.00 | 0.00 | 74 | 1020.3 |
| 20260506230016 | 14 | 248 | 6.4 | 17.7 | 0.00 | 0.00 | 0.00 | 74 | 1020.3 |
| 20260506225507 | 14 | 218 | 6.4 | 17.7 | 0.00 | 0.00 | 0.00 | 73 | 1020.3 |
| 20260506225003 | 14 | 240 | 6.4 | 24.1 | 0.00 | 0.00 | 0.00 | 74 | 1020.3 |
| 20260506224512 | 14 | 255 | 14.5 | 24.1 | 0.00 | 0.00 | 0.00 | 72 | 1020.3 |
| 20260506224004 | 15 | 219 | 11.3 | 20.9 | 0.00 | 0.00 | 0.00 | 72 | 1020.2 |
| 20260506223504 | 15 | 213 | 6.4 | 17.7 | 0.00 | 0.00 | 0.00 | 72 | 1020.3 |
| 20260506223015 | 15 | 173 | 6.4 | 17.7 | 0.00 | 0.00 | 0.00 | 71 | 1020.3 |
| 20260506222505 | 15 | 232 | 4.8 | 16.1 | 0.00 | 0.00 | 0.00 | 72 | 1020.3 |
| 20260506222006 | 15 | 180 | 6.4 | 16.1 | 0.00 | 0.00 | 0.00 | 73 | 1020.3 |
| 20260506221514 | 15 | 246 | 3.2 | 16.1 | 0.00 | 0.00 | 0.00 | 73 | 1020.4 |
| 20260506221002 | 15 | 223 | 4.8 | 17.7 | 0.00 | 0.00 | 0.00 | 73 | 1020.5 |
| 20260506220502 | 15 | 167 | 8.0 | 17.7 | 0.00 | 0.00 | 0.00 | 74 | 1020.5 |
| 20260506220012 | 15 | 179 | 8.0 | 20.9 | 0.00 | 0.00 | 0.00 | 74 | 1020.5 |
| 20260506215503 | 15 | 221 | 9.7 | 20.9 | 0.00 | 0.00 | 0.00 | 74 | 1020.6 |
| 20260506215006 | 15 | 234 | 6.4 | 17.7 | 0.00 | 0.00 | 0.00 | 74 | 1020.6 |
| 20260506214515 | 15 | 230 | 9.7 | 17.7 | 0.00 | 0.00 | 0.00 | 74 | 1020.5 |
| 20260506214004 | 15 | 211 | 8.0 | 17.7 | 0.00 | 0.00 | 0.00 | 75 | 1020.5 |
| 20260506213503 | 15 | 210 | 8.0 | 19.3 | 0.00 | 0.00 | 0.00 | 74 | 1020.3 |
| 20260506213016 | 15 | 225 | 8.0 | 19.3 | 0.00 | 0.00 | 0.00 | 73 | 1020.4 |
| 20260506212506 | 15 | 159 | 8.0 | 19.3 | 0.00 | 0.00 | 0.00 | 74 | 1020.4 |
| 20260506212004 | 15 | 246 | 8.0 | 20.9 | 0.00 | 0.00 | 0.00 | 73 | 1020.4 |
| 20260506211515 | 15 | 261 | 9.7 | 20.9 | 0.00 | 0.00 | 0.00 | 73 | 1020.5 |
| 20260506211003 | 15 | 269 | 11.3 | 19.3 | 0.00 | 0.00 | 0.00 | 73 | 1020.4 |
| 20260506210503 | 15 | 205 | 9.7 | 20.9 | 0.00 | 0.00 | 0.00 | 73 | 1020.5 |
| 20260506210016 | 15 | 202 | 6.4 | 22.5 | 0.00 | 0.00 | 0.00 | 74 | 1020.4 |
| 20260506205502 | 15 | 184 | 8.0 | 22.5 | 0.00 | 0.00 | 0.00 | 75 | 1020.4 |
| 20260506205002 | 15 | 217 | 8.0 | 27.4 | 0.00 | 0.00 | 0.00 | 76 | 1020.4 |
| 20260506204517 | 14 | 209 | 8.0 | 27.4 | 0.00 | 0.00 | 0.00 | 77 | 1020.4 |
| 20260506204007 | 14 | 179 | 6.4 | 12.9 | 0.00 | 0.00 | 0.00 | 80 | 1020.4 |
| 20260506203507 | 13 | 211 | 3.2 | 11.3 | 0.00 | 0.00 | 0.00 | 82 | 1020.3 |
| 20260506203019 | 13 | 262 | 4.8 | 16.1 | 0.00 | 0.00 | 0.00 | 81 | 1020.4 |
| 20260506202506 | 13 | 275 | 4.8 | 19.3 | 0.00 | 0.00 | 0.00 | 81 | 1020.3 |
| 20260506202008 | 13 | 258 | 8.0 | 19.3 | 0.00 | 0.00 | 0.00 | 80 | 1020.3 |
| 20260506201518 | 13 | 261 | 6.4 | 14.5 | 0.00 | 0.00 | 0.00 | 81 | 1020.3 |
| 20260506201004 | 13 | 237 | 3.2 | 12.9 | 0.00 | 0.00 | 0.00 | 82 | 1020.4 |
| 20260506200503 | 13 | 172 | 3.2 | 11.3 | 0.00 | 0.00 | 0.00 | 82 | 1020.4 |
| 20260506200019 | 13 | 246 | 3.2 | 16.1 | 0.00 | 0.00 | 0.00 | 82 | 1020.4 |
| 20260506195506 | 13 | 267 | 3.2 | 16.1 | 0.00 | 0.00 | 0.00 | 81 | 1020.4 |
| 20260506195003 | 13 | 263 | 4.8 | 16.1 | 0.00 | 0.00 | 0.00 | 82 | 1020.4 |
| 20260506194518 | 13 | 224 | 4.8 | 16.1 | 0.00 | 0.00 | 0.00 | 81 | 1020.3 |
| 20260506194009 | 13 | 172 | 4.8 | 14.5 | 0.00 | 0.00 | 0.00 | 82 | 1020.3 |
| 20260506193504 | 13 | 227 | 3.2 | 12.9 | 0.00 | 0.00 | 0.00 | 82 | 1020.2 |
| 20260506193017 | 13 | 209 | 6.4 | 12.9 | 0.00 | 0.00 | 0.00 | 82 | 1020.2 |
| 20260506192506 | 13 | 177 | 4.8 | 12.9 | 0.00 | 0.00 | 0.00 | 83 | 1020.2 |
| 20260506192008 | 13 | 157 | 3.2 | 17.7 | 0.00 | 0.00 | 0.00 | 82 | 1020.2 |
| 20260506191519 | 13 | 187 | 4.8 | 17.7 | 0.00 | 0.00 | 0.00 | 82 | 1020.2 |
| 20260506191006 | 13 | 178 | 4.8 | 14.5 | 0.00 | 0.00 | 0.00 | 82 | 1020.1 |
| 20260506190507 | 13 | 259 | 0.0 | 14.5 | 0.00 | 0.00 | 0.00 | 83 | 1020.1 |
| 20260506190020 | 13 | 248 | 4.8 | 14.5 | 0.00 | 0.00 | 0.00 | 84 | 1020.1 |
| 20260506185508 | 13 | 197 | 3.2 | 16.1 | 0.00 | 0.00 | 0.00 | 83 | 1020.1 |
| 20260506185007 | 13 | 244 | 6.4 | 16.1 | 0.00 | 0.00 | 0.00 | 83 | 1020.0 |
| 20260506184520 | 13 | 204 | 4.8 | 12.9 | 0.00 | 0.00 | 0.00 | 84 | 1020.0 |
| 20260506184007 | 13 | 232 | 4.8 | 11.3 | 0.00 | 0.00 | 0.00 | 84 | 1020.1 |
| 20260506183507 | 13 | 158 | 3.2 | 11.3 | 0.00 | 0.00 | 0.00 | 85 | 1020.0 |
| 20260506183024 | 13 | 248 | 1.6 | 9.7 | 0.00 | 0.00 | 0.00 | 86 | 1020.0 |
| 20260506182502 | 13 | 222 | 3.2 | 12.9 | 0.00 | 0.00 | 0.00 | 86 | 1020.0 |
| 20260506182010 | 13 | 167 | 4.8 | 12.9 | 0.00 | 0.00 | 0.00 | 85 | 1019.9 |
| 20260506181529 | 13 | 161 | 3.2 | 17.7 | 0.00 | 0.00 | 0.00 | 85 | 1019.9 |
| 20260506181012 | 13 | 192 | 4.8 | 17.7 | 0.00 | 0.00 | 0.00 | 85 | 1019.9 |
| 20260506180515 | 13 | 250 | 6.4 | 14.5 | 0.00 | 0.00 | 0.00 | 86 | 1020.0 |
| 20260506180032 | 13 | 188 | 4.8 | 11.3 | 0.00 | 0.00 | 0.00 | 87 | 1019.9 |
| 20260506175511 | 13 | 211 | 1.6 | 11.3 | 0.00 | 0.00 | 0.00 | 87 | 1019.8 |
| 20260506175008 | 13 | 256 | 4.8 | 9.7 | 0.00 | 0.00 | 0.00 | 88 | 1019.9 |
| 20260506174519 | 12 | 210 | 0.0 | 9.7 | 0.00 | 0.00 | 0.00 | 88 | 1019.9 |
| 20260506174009 | 12 | 251 | 1.6 | 9.7 | 0.00 | 0.00 | 0.00 | 88 | 1019.7 |
| 20260506173507 | 12 | 267 | 4.8 | 9.7 | 0.00 | 0.00 | 0.00 | 88 | 1019.6 |
| 20260506173022 | 12 | 175 | 0.0 | 9.7 | 0.00 | 0.00 | 0.00 | 88 | 1019.5 |
| 20260506172506 | 12 | 227 | 3.2 | 9.7 | 0.00 | 0.00 | 0.00 | 88 | 1019.6 |
| 20260506172008 | 12 | 240 | 3.2 | 9.7 | 0.00 | 0.00 | 0.00 | 88 | 1019.7 |
| 20260506171534 | 12 | 234 | 3.2 | 12.9 | 0.00 | 0.00 | 0.00 | 88 | 1019.8 |
| 20260506171005 | 12 | 247 | 3.2 | 12.9 | 0.00 | 0.00 | 0.00 | 87 | 1019.8 |
| 20260506170508 | 12 | 230 | 4.8 | 12.9 | 0.00 | 0.00 | 0.00 | 88 | 1019.8 |
| 20260506170020 | 12 | 257 | 3.2 | 14.5 | 0.00 | 0.00 | 0.00 | 87 | 1019.8 |
| 20260506165509 | 12 | 238 | 3.2 | 14.5 | 0.00 | 0.00 | 0.00 | 87 | 1019.7 |
| 20260506165008 | 12 | 116 | 3.2 | 11.3 | 0.00 | 0.00 | 0.00 | 87 | 1019.5 |
| 20260506164521 | 12 | 99 | 3.2 | 11.3 | 0.00 | 0.00 | 0.00 | 87 | 1019.7 |
| 20260506164007 | 12 | 192 | 3.2 | 12.9 | 0.00 | 0.00 | 0.00 | 87 | 1019.9 |
| 20260506163507 | 12 | 142 | 8.0 | 12.9 | 0.00 | 0.00 | 0.00 | 87 | 1019.8 |
| 20260506163027 | 12 | 156 | 3.2 | 8.0 | 0.00 | 0.00 | 0.00 | 88 | 1019.9 |
| 20260506162503 | 12 | 204 | 3.2 | 9.7 | 0.00 | 0.00 | 0.00 | 88 | 1019.8 |
| 20260506162007 | 12 | 164 | 3.2 | 12.9 | 0.00 | 0.00 | 0.00 | 89 | 1019.7 |
| 20260506161520 | 12 | 108 | 4.8 | 12.9 | 0.00 | 0.00 | 0.00 | 89 | 1019.6 |
| 20260506161003 | 12 | 164 | 3.2 | 12.9 | 0.00 | 0.00 | 0.00 | 89 | 1019.6 |
| 20260506160505 | 12 | 175 | 1.6 | 8.0 | 0.00 | 0.00 | 0.00 | 90 | 1019.6 |
| 20260506160018 | 12 | 225 | 0.0 | 4.8 | 0.00 | 0.00 | 0.00 | 90 | 1019.6 |
| 20260506155511 | 12 | 178 | 1.6 | 6.4 | 0.00 | 0.00 | 0.00 | 90 | 1019.5 |
| 20260506155007 | 12 | 71 | 0.0 | 6.4 | 0.00 | 0.00 | 0.00 | 90 | 1019.3 |
| 20260506154524 | 12 | 165 | 1.6 | 6.4 | 0.00 | 0.00 | 0.00 | 90 | 1019.2 |
| 20260506154002 | 12 | 156 | 3.2 | 12.9 | 0.00 | 0.00 | 0.00 | 90 | 1019.3 |
| 20260506153502 | 12 | 173 | 4.8 | 12.9 | 0.00 | 0.00 | 0.00 | 90 | 1019.2 |
| 20260506153009 | 12 | 119 | 1.6 | 11.3 | 0.00 | 0.00 | 0.00 | 90 | 1019.2 |
| 20260506152502 | 12 | 120 | 3.2 | 9.7 | 0.00 | 0.00 | 0.00 | 90 | 1019.3 |
| 20260506152006 | 12 | 125 | 1.6 | 9.7 | 0.00 | 0.00 | 0.00 | 90 | 1019.3 |
| 20260506151511 | 12 | 142 | 3.2 | 6.4 | 0.00 | 0.00 | 0.00 | 90 | 1019.4 |
| 20260506151003 | 12 | 117 | 3.2 | 6.4 | 0.00 | 0.00 | 0.00 | 90 | 1019.4 |
| 20260506150503 | 12 | 117 | 1.6 | 4.8 | 0.00 | 0.00 | 0.00 | 90 | 1019.5 |
| 20260506150022 | 12 | 142 | 0.0 | 4.8 | 0.00 | 0.00 | 0.00 | 91 | 1019.6 |
| 20260506145506 | 12 | 142 | 0.0 | 6.4 | 0.00 | 0.00 | 0.00 | 91 | 1019.5 |
| 20260506145004 | 12 | 123 | 1.6 | 6.4 | 0.00 | 0.00 | 0.00 | 91 | 1019.3 |
| 20260506144520 | 11 | 161 | 0.0 | 6.4 | 0.00 | 0.00 | 0.00 | 91 | 1019.1 |
| 20260506144006 | 11 | 161 | 1.6 | 6.4 | 0.00 | 0.00 | 0.00 | 91 | 1019.0 |
| 20260506143507 | 11 | 161 | 0.0 | 6.4 | 0.00 | 0.00 | 0.00 | 91 | 1019.0 |
| 20260506143009 | 11 | 161 | 1.6 | 6.4 | 0.00 | 0.00 | 0.00 | 92 | 1019.0 |
| 20260506142503 | 11 | 164 | 0.0 | 6.4 | 0.00 | 0.00 | 0.00 | 92 | 1019.2 |
| 20260506142001 | 11 | 164 | 0.0 | 6.4 | 0.00 | 0.00 | 0.00 | 92 | 1019.0 |
| 20260506141512 | 11 | 164 | 1.6 | 4.8 | 0.00 | 0.00 | 0.00 | 92 | 1019.0 |
| 20260506141003 | 11 | 150 | 0.0 | 4.8 | 0.00 | 0.00 | 0.00 | 92 | 1019.1 |
| 20260506140503 | 11 | 150 | 1.6 | 4.8 | 0.00 | 0.00 | 0.00 | 92 | 1018.9 |
| 20260506140016 | 11 | 77 | 0.0 | 3.2 | 0.00 | 0.00 | 0.00 | 92 | 1018.9 |
| 20260506135503 | 11 | 77 | 0.0 | 4.8 | 0.00 | 0.00 | 0.00 | 92 | 1018.9 |
| 20260506135011 | 11 | 77 | 1.6 | 4.8 | 0.00 | 0.00 | 0.00 | 92 | 1018.9 |
| 20260506134541 | 11 | 77 | 1.6 | 4.8 | 0.00 | 0.00 | 0.00 | 92 | 1018.9 |
| 20260506134007 | 11 | 77 | 0.0 | 3.2 | 0.00 | 0.00 | 0.00 | 92 | 1019.0 |
| 20260506133508 | 11 | 77 | 0.0 | 3.2 | 0.00 | 0.00 | 0.00 | 92 | 1018.9 |
| 20260506133023 | 11 | 77 | 1.6 | 3.2 | 0.00 | 0.00 | 0.00 | 92 | 1019.0 |
| 20260506132508 | 11 | 320 | 1.6 | 3.2 | 0.00 | 0.00 | 0.00 | 92 | 1019.0 |
| 20260506132008 | 11 | 320 | 0.0 | 1.6 | 0.00 | 0.00 | 0.00 | 92 | 1018.8 |
| 20260506131507 | 11 | 320 | 0.0 | 1.6 | 0.00 | 0.00 | 0.00 | 92 | 1018.9 |
| 20260506131003 | 11 | 320 | 0.0 | 0.0 | 0.00 | 0.00 | 0.00 | 93 | 1018.9 |
| 20260506130502 | 11 | 320 | 0.0 | 0.0 | 0.00 | 0.00 | 0.00 | 92 | 1018.9 |
| 20260506130012 | 11 | 320 | 0.0 | 1.6 | 0.00 | 0.00 | 0.00 | 93 | 1018.7 |
| 20260506125503 | 11 | 320 | 0.0 | 1.6 | 0.00 | 0.00 | 0.00 | 92 | 1018.5 |
| 20260506125003 | 11 | 320 | 0.0 | 1.6 | 0.00 | 0.00 | 0.00 | 92 | 1018.4 |
| 20260506124518 | 11 | 320 | 0.0 | 3.2 | 0.00 | 0.00 | 0.00 | 92 | 1018.5 |
| 20260506124003 | 11 | 320 | 0.0 | 3.2 | 0.00 | 0.00 | 0.00 | 92 | 1018.4 |
| 20260506123506 | 11 | 320 | 0.0 | 3.2 | 0.00 | 0.00 | 0.00 | 92 | 1018.4 |
| 20260506123020 | 11 | 320 | 0.0 | 3.2 | 0.00 | 0.00 | 0.00 | 92 | 1018.4 |
| 20260506122508 | 11 | 320 | 0.0 | 3.2 | 0.00 | 0.00 | 0.00 | 92 | 1018.5 |
| 20260506122010 | 11 | 272 | 0.0 | 3.2 | 0.00 | 0.00 | 0.00 | 92 | 1018.5 |
| 20260506121525 | 11 | 272 | 0.0 | 3.2 | 0.00 | 0.00 | 0.00 | 92 | 1018.5 |
| 20260506121006 | 10 | 272 | 0.0 | 3.2 | 0.00 | 0.00 | 0.00 | 92 | 1018.6 |
| 20260506120506 | 10 | 272 | 0.0 | 0.0 | 0.00 | 0.00 | 0.00 | 92 | 1018.5 |
| 20260506120011 | 10 | 272 | 0.0 | 0.0 | 0.00 | 0.00 | 0.00 | 92 | 1018.5 |
| 20260506115503 | 10 | 272 | 0.0 | 0.0 | 0.00 | 0.00 | 0.00 | 92 | 1018.4 |
| 20260506115004 | 10 | 272 | 0.0 | 0.0 | 0.00 | 0.00 | 0.00 | 92 | 1018.4 |
| 20260506114523 | 10 | 272 | 0.0 | 0.0 | 0.00 | 0.00 | 0.00 | 92 | 1018.4 |
| 20260506114003 | 10 | 272 | 0.0 | 3.2 | 0.00 | 0.00 | 0.00 | 92 | 1018.4 |
| 20260506113503 | 10 | 272 | 0.0 | 3.2 | 0.00 | 0.00 | 0.00 | 92 | 1018.4 |
| 20260506113019 | 10 | 272 | 0.0 | 3.2 | 0.00 | 0.00 | 0.00 | 92 | 1018.3 |
| 20260506112506 | 10 | 272 | 0.0 | 3.2 | 0.00 | 0.00 | 0.00 | 92 | 1018.3 |
| 20260506112006 | 10 | 36 | 0.0 | 3.2 | 0.00 | 0.00 | 0.00 | 92 | 1018.2 |
| 20260506111522 | 10 | 36 | 0.0 | 0.0 | 0.00 | 0.00 | 0.00 | 92 | 1018.0 |
| 20260506111009 | 10 | 36 | 0.0 | 0.0 | 0.00 | 0.00 | 0.00 | 92 | 1017.9 |
| 20260506110510 | 10 | 36 | 0.0 | 0.0 | 0.00 | 0.00 | 0.00 | 92 | 1017.8 |
| 20260506110029 | 10 | 36 | 0.0 | 0.0 | 0.00 | 0.00 | 0.00 | 92 | 1017.8 |
| 20260506105509 | 10 | 36 | 0.0 | 1.6 | 0.00 | 0.00 | 0.00 | 92 | 1017.7 |
| 20260506105008 | 10 | 36 | 0.0 | 1.6 | 0.00 | 0.00 | 0.00 | 92 | 1017.6 |
| 20260506104511 | 10 | 36 | 0.0 | 1.6 | 0.00 | 0.00 | 0.00 | 92 | 1017.7 |
| 20260506104003 | 10 | 36 | 0.0 | 1.6 | 0.00 | 0.00 | 0.00 | 92 | 1017.5 |
| 20260506103503 | 10 | 36 | 0.0 | 1.6 | 0.00 | 0.00 | 0.00 | 92 | 1017.5 |
| 20260506103023 | 10 | 36 | 0.0 | 0.0 | 0.00 | 0.00 | 0.00 | 92 | 1017.5 |
| 20260506102503 | 10 | 36 | 0.0 | 1.6 | 0.00 | 0.00 | 0.00 | 92 | 1017.5 |
| 20260506102003 | 10 | 36 | 0.0 | 1.6 | 0.00 | 0.00 | 0.00 | 92 | 1017.5 |
| 20260506101522 | 10 | 36 | 0.0 | 1.6 | 0.00 | 0.00 | 0.00 | 92 | 1017.5 |
| 20260506101006 | 10 | 36 | 0.0 | 0.0 | 0.00 | 0.00 | 0.00 | 92 | 1017.4 |
| 20260506100506 | 10 | 36 | 0.0 | 0.0 | 0.00 | 0.00 | 0.00 | 92 | 1017.3 |
| 20260506100032 | 10 | 36 | 0.0 | 0.0 | 0.00 | 0.00 | 0.00 | 92 | 1017.3 |
| 20260506095503 | 10 | 36 | 0.0 | 0.0 | 0.00 | 0.00 | 0.00 | 92 | 1017.3 |
| 20260506095004 | 10 | 36 | 0.0 | 0.0 | 0.00 | 0.00 | 0.00 | 92 | 1017.2 |
| 20260506094514 | 10 | 36 | 0.0 | 0.0 | 0.00 | 0.00 | 0.00 | 91 | 1017.2 |
| 20260506094004 | 10 | 36 | 0.0 | 3.2 | 0.00 | 0.00 | 0.00 | 92 | 1017.2 |
| 20260506093503 | 10 | 36 | 0.0 | 3.2 | 0.00 | 0.00 | 0.00 | 91 | 1017.2 |
| 20260506093012 | 10 | 36 | 1.6 | 3.2 | 0.00 | 0.00 | 0.00 | 91 | 1017.2 |
| 20260506092507 | 10 | 36 | 1.6 | 3.2 | 0.00 | 0.00 | 0.00 | 91 | 1017.1 |
| 20260506092004 | 10 | 36 | 0.0 | 3.2 | 0.00 | 0.00 | 0.00 | 91 | 1017.1 |
| 20260506091520 | 10 | 36 | 0.0 | 3.2 | 0.00 | 0.00 | 0.00 | 91 | 1017.1 |
| 20260506091004 | 10 | 36 | 1.6 | 3.2 | 0.00 | 0.00 | 0.00 | 91 | 1017.2 |
| 20260506090506 | 10 | 36 | 1.6 | 3.2 | 0.00 | 0.00 | 0.00 | 90 | 1017.1 |
| 20260506090023 | 10 | 36 | 0.0 | 3.2 | 0.00 | 0.00 | 0.00 | 90 | 1017.1 |
| 20260506085506 | 10 | 36 | 0.0 | 3.2 | 0.00 | 0.00 | 0.00 | 90 | 1017.0 |
| 20260506085006 | 11 | 36 | 1.6 | 3.2 | 0.00 | 0.00 | 0.00 | 90 | 1016.9 |
| 20260506084528 | 11 | 36 | 0.0 | 1.6 | 0.00 | 0.00 | 0.00 | 90 | 1016.8 |
| 20260506084003 | 11 | 36 | 0.0 | 1.6 | 0.00 | 0.00 | 0.00 | 89 | 1016.7 |
| 20260506083504 | 11 | 37 | 0.0 | 0.0 | 0.00 | 0.00 | 0.00 | 89 | 1016.7 |
| 20260506083012 | 11 | 36 | 0.0 | 0.0 | 0.00 | 0.00 | 0.00 | 89 | 1016.7 |
| 20260506082503 | 11 | 36 | 0.0 | 0.0 | 0.00 | 0.00 | 0.00 | 89 | 1016.7 |
| 20260506082004 | 11 | 36 | 0.0 | 0.0 | 0.00 | 0.00 | 0.00 | 89 | 1016.6 |
| 20260506081521 | 11 | 36 | 0.0 | 3.2 | 0.00 | 0.00 | 0.00 | 89 | 1016.6 |
| 20260506081006 | 11 | 36 | 0.0 | 3.2 | 0.00 | 0.00 | 0.00 | 89 | 1016.6 |
| 20260506080504 | 11 | 36 | 0.0 | 1.6 | 0.00 | 0.00 | 0.00 | 89 | 1016.5 |
| 20260506073510 | 12 | 36 | 0.0 | 1.6 | 0.00 | 0.00 | 0.00 | 88 | 1016.3 |
| 20260506073029 | 12 | 36 | 0.0 | 3.2 | 0.00 | 0.00 | 0.00 | 88 | 1016.3 |
| 20260506072503 | 12 | 36 | 0.0 | 3.2 | 0.00 | 0.00 | 0.00 | 88 | 1016.2 |
| 20260506072006 | 12 | 36 | 1.6 | 3.2 | 0.00 | 0.00 | 0.00 | 88 | 1016.3 |
| 20260506071514 | 12 | 36 | 0.0 | 3.2 | 0.00 | 0.00 | 0.00 | 88 | 1016.3 |
| 20260506071004 | 12 | 36 | 0.0 | 3.2 | 0.00 | 0.00 | 0.00 | 87 | 1016.3 |
| 20260506070504 | 12 | 36 | 0.0 | 3.2 | 0.00 | 0.00 | 0.00 | 87 | 1016.3 |
| 20260506062508 | 12 | 192 | 0.0 | 3.2 | 0.00 | 0.00 | 0.00 | 87 | 1016.3 |
| 20260506062008 | 12 | 192 | 0.0 | 1.6 | 0.00 | 0.00 | 0.00 | 87 | 1016.3 |
| 20260506061534 | 12 | 192 | 0.0 | 1.6 | 0.00 | 0.00 | 0.00 | 87 | 1016.2 |
| 20260506061004 | 12 | 192 | 0.0 | 1.6 | 0.00 | 0.00 | 0.00 | 86 | 1016.1 |
| 20260506060506 | 12 | 192 | 0.0 | 3.2 | 0.00 | 0.00 | 0.00 | 86 | 1016.0 |
| 20260506051009 | 13 | 192 | 1.6 | 3.2 | 0.00 | 0.00 | 0.00 | 84 | 1015.4 |
| 20260506050508 | 13 | 191 | 1.6 | 4.8 | 0.00 | 0.00 | 0.00 | 83 | 1015.3 |
| 20260506045007 | 14 | 192 | 0.0 | 3.2 | 0.00 | 0.00 | 0.00 | 82 | 1015.4 |
| 20260506044520 | 14 | 192 | 0.0 | 1.6 | 0.00 | 0.00 | 0.00 | 82 | 1015.3 |
| 20260506044008 | 14 | 191 | 0.0 | 3.2 | 0.00 | 0.00 | 0.00 | 81 | 1015.3 |
| 20260506043506 | 14 | 191 | 1.6 | 3.2 | 0.00 | 0.00 | 0.00 | 81 | 1015.3 |
| 20260506043021 | 15 | 191 | 1.6 | 3.2 | 0.00 | 0.00 | 0.00 | 81 | 1015.2 |
| 20260506042507 | 15 | 191 | 0.0 | 3.2 | 0.00 | 0.00 | 0.00 | 80 | 1015.1 |
| 20260506042008 | 15 | 192 | 1.6 | 4.8 | 0.00 | 0.00 | 0.00 | 80 | 1015.0 |
| 20260506041525 | 15 | 191 | 0.0 | 4.8 | 0.00 | 0.00 | 0.00 | 80 | 1015.1 |
| 20260506041007 | 15 | 191 | 3.2 | 4.8 | 0.00 | 0.00 | 0.00 | 79 | 1015.0 |
| 20260506040508 | 15 | 192 | 1.6 | 4.8 | 0.00 | 0.00 | 0.00 | 79 | 1015.0 |
| 20260506040029 | 15 | 191 | 0.0 | 4.8 | 0.00 | 0.00 | 0.00 | 79 | 1015.0 |
| 20260506035508 | 15 | 191 | 0.0 | 4.8 | 0.00 | 0.00 | 0.00 | 78 | 1015.0 |
| 20260506035011 | 15 | 191 | 1.6 | 4.8 | 0.00 | 0.00 | 0.00 | 78 | 1015.0 |
| 20260506034510 | 16 | 191 | 0.0 | 4.8 | 0.00 | 0.00 | 0.00 | 78 | 1015.0 |
| 20260506034007 | 16 | 191 | 1.6 | 6.4 | 0.00 | 0.00 | 0.00 | 77 | 1015.0 |
| 20260506033506 | 16 | 191 | 1.6 | 6.4 | 0.00 | 0.00 | 0.00 | 77 | 1015.0 |
| 20260506033016 | 16 | 163 | 0.0 | 6.4 | 0.00 | 0.00 | 0.00 | 76 | 1015.0 |
| 20260506032507 | 16 | 210 | 0.0 | 4.8 | 0.00 | 0.00 | 0.00 | 75 | 1015.0 |
| 20260506032007 | 16 | 210 | 0.0 | 6.4 | 0.00 | 0.00 | 0.00 | 75 | 1014.9 |
| 20260506031528 | 16 | 210 | 3.2 | 6.4 | 0.00 | 0.00 | 0.00 | 74 | 1014.9 |
| 20260506031009 | 16 | 236 | 1.6 | 6.4 | 0.00 | 0.00 | 0.00 | 74 | 1014.8 |
| 20260506030506 | 17 | 221 | 1.6 | 6.4 | 0.00 | 0.00 | 0.00 | 73 | 1014.7 |
| 20260506030027 | 17 | 161 | 1.6 | 6.4 | 0.00 | 0.00 | 0.00 | 73 | 1014.7 |
| 20260506025508 | 17 | 167 | 1.6 | 6.4 | 0.00 | 0.00 | 0.00 | 72 | 1014.6 |
| 20260506025006 | 17 | 182 | 1.6 | 8.0 | 0.00 | 0.00 | 0.00 | 71 | 1014.6 |
| 20260506024537 | 17 | 208 | 3.2 | 8.0 | 0.00 | 0.00 | 0.00 | 71 | 1014.6 |
| 20260506024007 | 18 | 189 | 1.6 | 6.4 | 0.00 | 0.00 | 0.00 | 70 | 1014.6 |
| 20260506023510 | 18 | 221 | 1.6 | 6.4 | 0.00 | 0.00 | 0.00 | 69 | 1014.5 |
| 20260506023016 | 18 | 180 | 1.6 | 6.4 | 0.00 | 0.00 | 0.00 | 68 | 1014.4 |
| 20260506022506 | 18 | 171 | 0.0 | 6.4 | 0.00 | 0.00 | 0.00 | 67 | 1014.4 |
| 20260506022008 | 18 | 171 | 0.0 | 6.4 | 0.00 | 0.00 | 0.00 | 67 | 1014.5 |
| 20260506021518 | 18 | 95 | 0.0 | 9.7 | 0.00 | 0.00 | 0.00 | 67 | 1014.5 |
| 20260506021007 | 18 | 95 | 3.2 | 9.7 | 0.00 | 0.00 | 0.00 | 67 | 1014.5 |
| 20260506020505 | 18 | 97 | 1.6 | 8.0 | 0.00 | 0.00 | 0.00 | 66 | 1014.5 |
| 20260506020024 | 18 | 63 | 3.2 | 8.0 | 0.00 | 0.00 | 0.00 | 66 | 1014.5 |
| 20260506015511 | 18 | 61 | 4.8 | 8.0 | 0.00 | 0.00 | 0.00 | 65 | 1014.4 |
| 20260506015008 | 19 | 114 | 1.6 | 8.0 | 0.00 | 0.00 | 0.00 | 65 | 1014.4 |
| 20260506014527 | 19 | 11 | 3.2 | 8.0 | 0.00 | 0.00 | 0.00 | 64 | 1014.4 |
| 20260506014007 | 19 | 43 | 3.2 | 8.0 | 0.00 | 0.00 | 0.00 | 65 | 1014.5 |
| 20260506013507 | 19 | 130 | 3.2 | 8.0 | 0.00 | 0.00 | 0.00 | 64 | 1014.5 |
| 20260506013032 | 19 | 93 | 0.0 | 8.0 | 0.00 | 0.00 | 0.00 | 65 | 1014.5 |
| 20260506012509 | 19 | 159 | 1.6 | 8.0 | 0.00 | 0.00 | 0.00 | 65 | 1014.5 |
| 20260506012013 | 19 | 161 | 3.2 | 9.7 | 0.00 | 0.00 | 0.00 | 65 | 1014.5 |
| 20260506011537 | 18 | 113 | 1.6 | 9.7 | 0.00 | 0.00 | 0.00 | 67 | 1014.6 |
| 20260506011008 | 18 | 76 | 4.8 | 9.7 | 0.00 | 0.00 | 0.00 | 66 | 1014.6 |
| 20260506010513 | 18 | 135 | 3.2 | 9.7 | 0.00 | 0.00 | 0.00 | 66 | 1014.7 |
| 20260506010022 | 19 | 181 | 1.6 | 9.7 | 0.00 | 0.00 | 0.00 | 65 | 1014.7 |
| 20260506005507 | 19 | 157 | 3.2 | 11.3 | 0.00 | 0.00 | 0.00 | 65 | 1014.8 |
| 20260506005006 | 19 | 148 | 4.8 | 11.3 | 0.00 | 0.00 | 0.00 | 65 | 1014.8 |
| 20260506004523 | 19 | 185 | 1.6 | 11.3 | 0.00 | 0.00 | 0.00 | 64 | 1014.7 |
| 20260506004006 | 20 | 227 | 4.8 | 11.3 | 0.00 | 0.00 | 0.00 | 64 | 1014.8 |
| 20260506003503 | 19 | 100 | 3.2 | 9.7 | 0.00 | 0.00 | 0.00 | 64 | 1014.7 |
| 20260506003010 | 20 | 250 | 3.2 | 11.3 | 0.00 | 0.00 | 0.00 | 63 | 1014.7 |
| 20260506002504 | 19 | 74 | 3.2 | 11.3 | 0.00 | 0.00 | 0.00 | 64 | 1014.7 |
| 20260506002002 | 19 | 105 | 1.6 | 11.3 | 0.00 | 0.00 | 0.00 | 65 | 1014.8 |